Weather History for KNKT - January, 2013

Change the Weather History Date:

Tuesday, January 8, 2013

  Actual Average Record
Temperature  
Mean Temperature 50 °F -  
Max Temperature 60 °F 55 °F 73 °F (1998)
Min Temperature 39 °F 34 °F 17 °F (2014)
Degree Days  
Heating Degree Days 16    
Moisture  
Dew Point 41 °F    
Average Humidity 76    
Maximum Humidity 89    
Minimum Humidity 60    
Precipitation  
Precipitation 0.00 in - - ()
Sea Level Pressure  
Sea Level Pressure 30.40 in    
Wind  
Wind Speed 4 mph ()    
Max Wind Speed 9 mph    
Max Gust Speed -    
Visibility 9.9 miles    
Events      
Averages and records for this station are not official NWS values.
T = Trace of Precipitation, MM = Missing Value Source: Averaged Metar Reports

Daily Weather History Graph

Daily Weather History Graph

Search for Another Location

Airport or City:

Trip Planner

Search our weather history database for the weather conditions in past years. The results will help you decide how hot, cold, wet, or windy it might be!

Date:

Astronomy

Jan. 08, 2013 Rise Set
Actual Time 7:15 AM EST 5:13 PM EST
Civil Twilight 6:48 AM EST 5:40 PM EST
Nautical Twilight 6:16 AM EST 6:12 PM EST
Astronomical Twilight 5:46 AM EST 6:42 PM EST
Moon 3:47 AM EST (1/8) 2:13 PM EST (1/8)
Length of Visible Light 10h 52m
Length of Day
9h 57m
Waning Crescent, 14% of the Moon is Illuminated
Jan 8
Waning Crescent
Jan 11
New
Jan 18
First Quarter
Jan 26
Full
Feb 3
Last Quarter

Hourly Weather History & Observations

Time (EST) Temp. Windchill Dew Point Humidity Pressure Visibility Wind Dir Wind Speed Gust Speed Precip Events Conditions
12:54 AM 39.0 °F 32.8 °F 33.1 °F 79% 30.40 in 10.0 mi NE 9.2 mph - N/A   Clear
1:54 AM 39.0 °F 35.7 °F 32.0 °F 76% 30.41 in 10.0 mi NNE 4.6 mph - N/A   Clear
2:54 AM 39.0 °F 34.8 °F 33.1 °F 79% 30.40 in 10.0 mi NNE 5.8 mph - N/A   Clear
3:54 AM 39.9 °F 36.7 °F 34.0 °F 79% 30.39 in 10.0 mi NE 4.6 mph - N/A   Scattered Clouds
4:54 AM 39.9 °F 35.8 °F 34.0 °F 79% 30.38 in 10.0 mi NE 5.8 mph - N/A   Clear
5:54 AM 42.1 °F - 35.1 °F 76% 30.40 in 10.0 mi Calm Calm - N/A   Clear
6:54 AM 44.1 °F 40.1 °F 37.9 °F 79% 30.40 in 10.0 mi ENE 6.9 mph - N/A   Partly Cloudy
7:54 AM 45.0 °F 40.6 °F 39.0 °F 80% 30.42 in 10.0 mi East 8.1 mph - N/A   Scattered Clouds
8:54 AM 50.0 °F - 42.1 °F 74% 30.43 in 10.0 mi East 8.1 mph - N/A   Partly Cloudy
9:54 AM 55.4 °F - 44.6 °F 67% 30.45 in 10.0 mi East 6.9 mph - N/A   Smoke
10:54 AM 57.9 °F - 45.0 °F 62% 30.44 in 10.0 mi ESE 8.1 mph - N/A   Mostly Cloudy
11:54 AM 55.0 °F - 45.0 °F 69% 30.41 in 10.0 mi ENE 6.9 mph - N/A   Mostly Cloudy
12:54 PM 60.1 °F - 46.0 °F 60% 30.38 in 10.0 mi ENE 5.8 mph - N/A   Mostly Cloudy
1:54 PM 59.0 °F - 46.0 °F 62% 30.36 in 10.0 mi NNE 5.8 mph - N/A   Overcast
2:54 PM 59.0 °F - 46.9 °F 64% 30.37 in 10.0 mi NE 4.6 mph - N/A   Mostly Cloudy
3:54 PM 60.1 °F - 48.0 °F 64% 30.38 in 10.0 mi ENE 4.6 mph - N/A   Mostly Cloudy
4:54 PM 55.0 °F - 46.9 °F 74% 30.38 in 10.0 mi NE 3.5 mph - N/A   Overcast
5:54 PM 54.0 °F - 46.9 °F 77% 30.38 in 10.0 mi Calm Calm - N/A   Overcast
6:54 PM 50.0 °F - 45.0 °F 83% 30.40 in 10.0 mi Calm Calm - N/A   Scattered Clouds
7:54 PM 48.0 °F - 45.0 °F 89% 30.40 in 10.0 mi Calm Calm - N/A   Clear
8:54 PM 46.0 °F - 43.0 °F 89% 30.40 in 9.0 mi Calm Calm - N/A   Clear
9:54 PM 46.9 °F - 43.0 °F 86% 30.39 in 10.0 mi Calm Calm - N/A   Clear
10:54 PM 46.0 °F - 43.0 °F 89% 30.40 in 9.0 mi Calm Calm - N/A   Clear
11:54 PM 44.1 °F - 39.9 °F 85% 30.39 in 10.0 mi Calm Calm - N/A   Clear